User: anonymous   Login
Location: Unspecified
(0.0000°N, 0.0000°E)
Time: 11:54:49
(UTC+00:00)
Language:

SES 6 - Orbit

View from above orbital plane
View from above orbital plane
View from above satellite
View from above satellite

Ground track
Ground track

The orbit data is extracted from the following two-line orbital elements,

1 39172U 13026A   14298.20808110 -.00000262  00000-0  00000+0 0  3644
2 39172 000.0214 328.1338 0002111 254.9452 204.8749 01.00270659  5105
Epoch (UTC): 25 October 2014 04:59:38
Eccentricity: 0.0002111
inclination: 0.0214°
perigee height: 35777 km
apogee height: 35795 km
right ascension of ascending node: 328.1338°
argument of perigee: 254.9452°
revolutions per day: 1.00270659
mean anomaly at epoch: 204.8749°
orbit number at epoch: 510

The dashed part of the orbit path shows where the satellite is in the earth's shadow,  

DLR